CST,Max TemperatureF,Mean TemperatureF,Min TemperatureF,Max Dew PointF,MeanDew PointF,Min DewpointF,Max Humidity, Mean Humidity, Min Humidity, Max Sea Level PressureIn, Mean Sea Level PressureIn, Min Sea Level PressureIn, Max VisibilityMiles, Mean VisibilityMiles, Min VisibilityMiles, Max Wind SpeedMPH, Mean Wind SpeedMPH, Max Gust SpeedMPH,PrecipitationIn, CloudCover, Events, WindDirDegrees
2012-12-1,46,40,34,47,41,33,100,94,76,30.18,29.93,29.81,6,3,0,9,1,,0.00,8,Fog-Rain,147
2012-12-2,48,42,37,49,41,37,100,100,96,30.06,29.96,29.81,5,2,0,13,2,,0.00,7,Fog,291
2012-12-3,59,49,39,57,43,39,100,95,82,30.01,29.79,29.64,10,2,0,17,6,28,0.08,7,Fog-Rain,183
2012-12-4,46,36,23,37,25,11,82,60,44,30.36,30.09,29.91,10,10,10,24,11,30,0.00,0,,289
2012-12-5,32,24,15,26,17,11,88,71,52,30.48,30.37,30.18,10,10,10,10,2,,0.00,0,,135
2012-12-6,43,37,31,34,31,26,83,78,68,30.16,29.95,29.83,10,10,8,14,6,,0.00,2,Rain,197
2012-12-7,37,34,31,29,26,23,82,73,55,30.02,29.99,29.94,10,10,10,9,2,,0.00,4,,334
2012-12-8,36,32,27,24,23,21,88,74,55,30.17,30.07,29.98,10,10,10,7,1,,0.00,3,,34
2012-12-9,32,30,28,32,30,23,100,97,76,30.13,29.88,29.71,10,3,0,13,8,20,0.08,8,Fog-Snow,55
2012-12-10,30,26,22,30,24,20,100,90,74,29.94,29.83,29.71,10,9,2,12,6,,0.00,6,Rain-Snow,346
2012-12-11,24,22,19,23,19,16,100,87,74,30.09,29.95,29.87,10,9,4,10,2,,0.00,7,Snow,239
2012-12-12,38,25,12,26,18,12,100,87,58,30.18,30.12,30.06,10,7,0,13,2,,0.00,3,Fog,176
2012-12-13,34,31,28,23,22,20,72,67,62,30.14,30.10,30.08,10,10,10,8,4,,0.00,0,,188
2012-12-14,,,,,,,,,,,,,,,,,,,,,,
2012-12-15,,,,,,,,,,,,,,,,,,,,,,
2012-12-16,,,,,,,,,,,,,,,,,,,,,,
2012-12-17,26,25,24,22,21,20,88,84,80,29.73,29.71,29.70,10,10,10,6,1,,0.00,8,,334
2012-12-18,28,24,19,27,24,19,100,95,86,29.86,29.73,29.66,10,7,1,7,1,,0.00,7,Snow,57
2012-12-19,32,28,25,29,28,25,100,93,85,30.08,30.00,29.90,9,6,2,9,1,,0.00,8,Snow,42
2012-12-20,33,30,28,34,30,25,100,99,86,29.90,29.57,29.36,10,1,0,22,14,32,0.04,8,Fog-Snow,12
2012-12-21,28,20,12,24,15,6,86,81,77,30.22,30.02,29.65,10,10,8,21,15,34,0.00,5,,310
2012-12-22,27,14,0,15,7,-3,96,83,60,30.21,30.11,29.96,10,10,8,7,1,,0.00,0,,223
2012-12-23,24,14,3,18,13,0,100,86,71,30.10,30.06,29.98,10,10,10,9,2,,0.00,3,,345
2012-12-24,25,18,10,18,13,8,96,82,68,30.19,30.03,29.96,10,10,10,12,3,,0.00,6,,343
2012-12-25,20,12,5,12,7,3,92,79,65,30.43,30.35,30.21,10,10,10,10,3,,0.00,3,,340
2012-12-26,26,20,14,17,14,9,86,78,66,30.35,30.24,30.18,10,10,10,13,8,,0.00,5,,15
2012-12-27,24,20,16,17,15,14,93,78,69,30.27,30.22,30.14,10,10,5,8,3,,0.00,8,,20
2012-12-28,23,20,17,22,19,15,100,93,86,30.18,30.04,29.90,10,4,1,12,5,,0.02,8,Snow,47
2012-12-29,24,18,13,22,19,10,96,88,79,30.18,30.00,29.90,10,6,1,14,4,21,0.01,8,Snow,310
2012-12-30,21,13,5,11,8,3,92,83,65,30.30,30.17,29.96,10,8,3,10,5,,0.00,3,Snow,220
2012-12-31,22,12,-1,21,9,-5,96,81,65,30.23,30.07,29.94,10,9,6,18,7,21,0.00,3,Snow,311